Regional Weather Roundup
Issued by NWS

Home | Current Version | Previous Version | Graphics & Text | Print | Product List | Glossary Off
Versions: 1 2 3 4 5 6 7 8 9 10 11 12 13 14 15 16 17 18 19 20 21 22 23 24 25 26 27 28 29 30 31 32 33 34 35 36 37 38 39 40 41 42 43 44 45 46 47 48 49 50

000
ASUS43 KLSX 272259
RWRMO

WEATHER SUMMARY FOR MISSOURI
NATIONAL WEATHER SERVICE SPRINGFIELD MO
600 PM CDT MON JUL 27 2015

NOTE: "FAIR" INDICATES FEW OR NO CLOUDS BELOW 12,000 FEET WITH NO
       SIGNIFICANT WEATHER AND/OR OBSTRUCTIONS TO VISIBILITY.
       CURRENT SKY AND/OR WEATHER CONDITIONS ARE NOT AVAILABLE FOR
       CHILLICOTHE AND FARMINGTON.

MOZ001>031-035>038-043-044-053-054-280000-
...NORTHERN AND WESTERN MISSOURI...

CITY           SKY/WX    TMP DP  RH WIND       PRES   REMARKS
KANSAS CTY INT PTSUNNY   90  79  70 S9        29.87F HX 106
KANSAS C DTWN  PTSUNNY   94  75  54 SW12      29.85S HX 105
LEE`S SUMMIT   MOSUNNY   92  73  53 S9        29.88S HX 100
ST JOSEPH      MOSUNNY   89  78  70 S6        29.85F HX 103
KIRKSVILLE     HVY RAIN  72  70  93 NE15      29.99R VSB 1

$$
MOZ066>068-077>081-088>096-101>105-280000-
...SOUTHWEST MISSOURI...

CITY           SKY/WX    TMP DP  RH WIND       PRES   REMARKS
SPRINGFIELD    MOSUNNY   92  74  55 S10       29.92F HX 101
JOPLIN         MOSUNNY   93  74  53 S7        29.90F HX 103

$$
MOZ032>034-039>042-045>050-055>058-069>072-280000-
...CENTRAL MISSOURI...

CITY           SKY/WX    TMP DP  RH WIND       PRES   REMARKS
COLUMBIA       SUNNY     91  75  59 SW9       29.90S HX 101
JEFFERSON CITY SUNNY     93  73  52 S6        29.87S HX 102
ROLLA          SUNNY     91  74  57 SW6       29.91S HX 100
SEDALIA        SUNNY     93  74  53 S7        29.90S HX 103
OSAGE BEACH    SUNNY     93  73  52 SW5       29.91R HX 102

$$
MOZ051-052-059>065-280000-
...EAST CENTRAL MISSOURI...

CITY           SKY/WX    TMP DP  RH WIND       PRES   REMARKS
ST LOUIS INTL  LGT RAIN  86  69  56 SE6       29.89F HX  90
SPIRIT OF STL  LGT RAIN  83  72  69 NW6       29.88S
ST CHARLES     MOSUNNY   89  79  72 NE8       29.87S HX 104

$$
MOZ072>076-082>087-097>100-106>115-280000-
...SOUTH CENTRAL AND SOUTHEAST MISSOURI...

CITY           SKY/WX    TMP DP  RH WIND       PRES   REMARKS
CAPE GIRARDEAU MOSUNNY   88  78  72 SW6       29.90R HX 101
FARMINGTON     MOSUNNY   91  75  59 W9        29.94S HX 102
POPLAR BLUFF   MOSUNNY   91  79  67 S8        29.89S HX 107
WEST PLAINS    MOSUNNY   91  76  61 SW7       29.94F HX 103

$$


USA.gov is the U.S. government's official web portal to all federal, state and local government web resources and services.